| time (UTC) | temp C | wind direction | speed KPH | gust KPH | rain 1hr cm | rain 24hr cm | rain mn cm | humidity % | barometer mb |
| 20260502212815 | 17 | 225 | 9.7 | 16.1 | 0.00 | 0.00 | 0.00 | 34 | 1010.8 |
| 20260502211815 | 17 | 225 | 9.7 | 14.5 | 0.00 | 0.00 | 0.00 | 33 | 1010.8 |
| 20260502210815 | 17 | 248 | 12.9 | 20.9 | 0.00 | 0.00 | 0.00 | 33 | 1011.1 |
| 20260502205815 | 17 | 248 | 8.0 | 14.5 | 0.00 | 0.00 | 0.00 | 32 | 1011.2 |
| 20260502204815 | 17 | 203 | 14.5 | 19.3 | 0.00 | 0.00 | 0.00 | 34 | 1011.3 |
| 20260502203815 | 17 | 248 | 11.3 | 17.7 | 0.00 | 0.00 | 0.00 | 32 | 1011.7 |
| 20260502202815 | 18 | 180 | 17.7 | 22.5 | 0.00 | 0.00 | 0.00 | 32 | 1011.8 |
| 20260502201815 | 18 | 203 | 16.1 | 29.0 | 0.00 | 0.00 | 0.00 | 34 | 1012.1 |
| 20260502200815 | 17 | 180 | 11.3 | 17.7 | 0.00 | 0.00 | 0.00 | 34 | 1012.3 |
| 20260502195835 | 17 | 248 | 24.1 | 30.6 | 0.00 | 0.00 | 0.00 | 34 | 1012.6 |
| 20260502194815 | 17 | 180 | 16.1 | 24.1 | 0.00 | 0.00 | 0.00 | 34 | 1012.8 |
| 20260502193815 | 17 | 180 | 17.7 | 27.4 | 0.00 | 0.00 | 0.00 | 33 | 1013.0 |
| 20260502192835 | 16 | 225 | 11.3 | 16.1 | 0.00 | 0.00 | 0.00 | 33 | 1013.1 |
| 20260502191815 | 16 | 203 | 16.1 | 22.5 | 0.00 | 0.00 | 0.00 | 33 | 1013.3 |
| 20260502190815 | 16 | 248 | 14.5 | 24.1 | 0.00 | 0.00 | 0.00 | 34 | 1013.5 |
| 20260502185815 | 16 | 203 | 14.5 | 20.9 | 0.00 | 0.00 | 0.00 | 34 | 1013.7 |
| 20260502184815 | 15 | 203 | 16.1 | 27.4 | 0.00 | 0.00 | 0.00 | 35 | 1013.9 |
| 20260502183815 | 15 | 270 | 12.9 | 17.7 | 0.00 | 0.00 | 0.00 | 34 | 1014.0 |
| 20260502182837 | 15 | 225 | 11.3 | 16.1 | 0.00 | 0.00 | 0.00 | 32 | 1014.2 |
| 20260502181817 | 15 | 225 | 20.9 | 29.0 | 0.00 | 0.00 | 0.00 | 35 | 1014.3 |
| 20260502180817 | 15 | 203 | 16.1 | 22.5 | 0.00 | 0.00 | 0.00 | 34 | 1014.5 |
| 20260502163817 | 13 | 248 | 12.9 | 20.9 | 0.00 | 0.00 | 0.00 | 36 | 1016.0 |
| 20260502162816 | 13 | 203 | 12.9 | 25.7 | 0.00 | 0.00 | 0.00 | 34 | 1016.2 |
| 20260502161817 | 12 | 225 | 17.7 | 22.5 | 0.00 | 0.00 | 0.00 | 34 | 1016.4 |
| 20260502160817 | 13 | 225 | 14.5 | 19.3 | 0.00 | 0.00 | 0.00 | 37 | 1016.5 |
| 20260502151816 | 11 | 203 | 14.5 | 17.7 | 0.00 | 0.00 | 0.00 | 37 | 1017.4 |
| 20260502150836 | 11 | 248 | 16.1 | 20.9 | 0.00 | 0.00 | 0.00 | 39 | 1017.6 |
| 20260502122816 | 2 | 270 | 3.2 | 4.8 | 0.00 | 0.00 | 0.00 | 84 | 1018.3 |
| 20260502121816 | 1 | 270 | 1.6 | 3.2 | 0.00 | 0.00 | 0.00 | 86 | 1018.0 |
| 20260502120816 | 0 | 0.0 | 0.0 | 0.00 | 0.00 | 0.00 | 87 | 1017.9 | |
| 20260502115816 | -1 | 0.0 | 1.6 | 0.00 | 0.00 | 0.00 | 86 | 1017.9 | |
| 20260502114816 | -1 | 270 | 3.2 | 4.8 | 0.00 | 0.00 | 0.00 | 86 | 1017.9 |
| 20260502113816 | -1 | 270 | 1.6 | 3.2 | 0.00 | 0.00 | 0.00 | 86 | 1017.8 |
| 20260502112816 | -1 | 270 | 3.2 | 4.8 | 0.00 | 0.00 | 0.00 | 86 | 1017.9 |
| 20260502111816 | -1 | 315 | 1.6 | 3.2 | 0.00 | 0.00 | 0.00 | 86 | 1017.8 |
| 20260502110816 | -1 | 0.0 | 0.0 | 0.00 | 0.00 | 0.00 | 85 | 1017.7 | |
| 20260502105816 | -1 | 0.0 | 0.0 | 0.00 | 0.00 | 0.00 | 84 | 1017.8 | |
| 20260502104816 | -1 | 315 | 1.6 | 1.6 | 0.00 | 0.00 | 0.00 | 83 | 1017.7 |
| 20260502103816 | -1 | 0.0 | 0.0 | 0.00 | 0.00 | 0.00 | 81 | 1017.7 | |
| 20260502102816 | -1 | 315 | 1.6 | 1.6 | 0.00 | 0.00 | 0.00 | 81 | 1017.5 |
| 20260502101816 | -1 | 0.0 | 0.0 | 0.00 | 0.00 | 0.00 | 79 | 1017.6 | |
| 20260502100816 | -1 | 0.0 | 0.0 | 0.00 | 0.00 | 0.00 | 76 | 1017.6 | |
| 20260502090816 | 0 | 315 | 1.6 | 3.2 | 0.00 | 0.00 | 0.00 | 72 | 1017.7 |
| 20260502070816 | 0 | 293 | 1.6 | 3.2 | 0.00 | 0.00 | 0.00 | 72 | 1018.0 |
| 20260502065816 | 0 | 293 | 3.2 | 3.2 | 0.00 | 0.00 | 0.00 | 69 | 1018.0 |
| 20260502064816 | 0 | 293 | 1.6 | 3.2 | 0.00 | 0.00 | 0.00 | 73 | 1018.0 |
| 20260502063816 | 0 | 0.0 | 0.0 | 0.00 | 0.00 | 0.00 | 72 | 1018.0 | |
| 20260502062816 | 0 | 293 | 1.6 | 3.2 | 0.00 | 0.00 | 0.00 | 73 | 1017.9 |
| 20260502061816 | 0 | 0.0 | 0.0 | 0.00 | 0.00 | 0.00 | 73 | 1018.0 | |
| 20260502060815 | 0 | 0.0 | 0.0 | 0.00 | 0.00 | 0.00 | 74 | 1018.0 | |
| 20260502055816 | 0 | 0.0 | 0.0 | 0.00 | 0.00 | 0.00 | 72 | 1018.1 | |
| 20260502054816 | 0 | 0.0 | 0.0 | 0.00 | 0.00 | 0.00 | 73 | 1018.0 | |
| 20260502053815 | 0 | 0.0 | 0.0 | 0.00 | 0.00 | 0.00 | 74 | 1018.1 | |
| 20260502052815 | 0 | 0.0 | 0.0 | 0.00 | 0.00 | 0.00 | 74 | 1018.1 | |
| 20260502051815 | 1 | 0.0 | 0.0 | 0.00 | 0.00 | 0.00 | 76 | 1018.2 | |
| 20260502050815 | 1 | 0.0 | 0.0 | 0.00 | 0.00 | 0.00 | 74 | 1018.0 | |
| 20260502045816 | 1 | 0.0 | 0.0 | 0.00 | 0.00 | 0.00 | 70 | 1018.1 | |
| 20260502044816 | 1 | 0.0 | 0.0 | 0.00 | 0.00 | 0.00 | 68 | 1018.2 | |
| 20260502043836 | 2 | 0.0 | 0.0 | 0.00 | 0.00 | 0.00 | 64 | 1018.2 | |
| 20260502042816 | 2 | 0.0 | 0.0 | 0.00 | 0.00 | 0.00 | 70 | 1018.2 | |
| 20260502041816 | 2 | 0.0 | 0.0 | 0.00 | 0.00 | 0.00 | 63 | 1018.1 | |
| 20260502040816 | 2 | 0.0 | 0.0 | 0.00 | 0.00 | 0.00 | 67 | 1018.1 | |
| 20260502035816 | 2 | 0.0 | 0.0 | 0.00 | 0.00 | 0.00 | 66 | 1018.1 | |
| 20260502034815 | 3 | 0.0 | 0.0 | 0.00 | 0.00 | 0.00 | 62 | 1018.2 | |
| 20260502033815 | 3 | 0.0 | 0.0 | 0.00 | 0.00 | 0.00 | 62 | 1018.1 | |
| 20260502032916 | 3 | 0.0 | 0.0 | 0.00 | 0.00 | 0.00 | 58 | 1018.0 | |
| 20260502031816 | 4 | 0.0 | 0.0 | 0.00 | 0.00 | 0.00 | 58 | 1018.0 | |
| 20260502030815 | 5 | 0.0 | 0.0 | 0.00 | 0.00 | 0.00 | 51 | 1018.1 | |
| 20260502025816 | 5 | 0.0 | 0.0 | 0.00 | 0.00 | 0.00 | 51 | 1018.1 | |
| 20260502024815 | 6 | 0.0 | 0.0 | 0.00 | 0.00 | 0.00 | 43 | 1018.1 | |
| 20260502023816 | 6 | 0.0 | 0.0 | 0.00 | 0.00 | 0.00 | 41 | 1018.1 | |
| 20260502022815 | 6 | 0.0 | 0.0 | 0.00 | 0.00 | 0.00 | 44 | 1018.1 | |
| 20260502021815 | 7 | 0.0 | 0.0 | 0.00 | 0.00 | 0.00 | 44 | 1018.0 | |
| 20260502020815 | 7 | 0.0 | 0.0 | 0.00 | 0.00 | 0.00 | 37 | 1018.2 | |
| 20260502015815 | 8 | 0.0 | 0.0 | 0.00 | 0.00 | 0.00 | 35 | 1018.0 | |
| 20260502014815 | 8 | 0.0 | 0.0 | 0.00 | 0.00 | 0.00 | 35 | 1018.0 | |
| 20260502013815 | 8 | 0.0 | 1.6 | 0.00 | 0.00 | 0.00 | 36 | 1018.0 | |
| 20260502012815 | 8 | 0.0 | 0.0 | 0.00 | 0.00 | 0.00 | 31 | 1018.0 | |
| 20260502011815 | 9 | 315 | 1.6 | 3.2 | 0.00 | 0.00 | 0.00 | 32 | 1017.9 |
| 20260502010815 | 10 | 0.0 | 0.0 | 0.00 | 0.00 | 0.00 | 30 | 1017.9 | |
| 20260502005815 | 10 | 0.0 | 1.6 | 0.00 | 0.00 | 0.00 | 32 | 1017.8 | |
| 20260502004856 | 10 | 0.0 | 0.0 | 0.00 | 0.00 | 0.00 | 32 | 1017.7 | |
| 20260502003815 | 11 | 0.0 | 1.6 | 0.00 | 0.00 | 0.00 | 32 | 1017.7 | |
| 20260502002815 | 11 | 0.0 | 1.6 | 0.00 | 0.00 | 0.00 | 31 | 1017.8 | |
| 20260502001815 | 10 | 0.0 | 1.6 | 0.00 | 0.00 | 0.00 | 33 | 1017.7 | |
| 20260502000815 | 10 | 315 | 3.2 | 4.8 | 0.00 | 0.00 | 0.00 | 32 | 1017.6 |
| 20260501235815 | 11 | 315 | 3.2 | 4.8 | 0.00 | 0.00 | 0.00 | 31 | 1017.7 |
| 20260501234835 | 11 | 315 | 1.6 | 3.2 | 0.00 | 0.00 | 0.00 | 28 | 1017.8 |
| 20260501233816 | 12 | 0 | 3.2 | 6.4 | 0.00 | 0.00 | 0.00 | 29 | 1017.7 |
| 20260501232815 | 12 | 315 | 3.2 | 4.8 | 0.00 | 0.00 | 0.00 | 28 | 1017.7 |
| 20260501231835 | 12 | 0.0 | 1.6 | 0.00 | 0.00 | 0.00 | 30 | 1017.7 | |
| 20260501230815 | 12 | 338 | 8.0 | 12.9 | 0.00 | 0.00 | 0.00 | 27 | 1017.7 |
| 20260501225815 | 12 | 270 | 4.8 | 6.4 | 0.00 | 0.00 | 0.00 | 30 | 1017.8 |
| 20260501224815 | 12 | 315 | 6.4 | 8.0 | 0.00 | 0.00 | 0.00 | 27 | 1017.9 |
| 20260501223815 | 12 | 338 | 6.4 | 14.5 | 0.00 | 0.00 | 0.00 | 31 | 1017.9 |
| 20260501222815 | 12 | 0 | 6.4 | 14.5 | 0.00 | 0.00 | 0.00 | 29 | 1017.8 |
| 20260501221815 | 11 | 270 | 4.8 | 6.4 | 0.00 | 0.00 | 0.00 | 28 | 1017.9 |
| 20260501220815 | 11 | 0 | 3.2 | 6.4 | 0.00 | 0.00 | 0.00 | 31 | 1017.8 |
| 20260501215815 | 11 | 23 | 1.6 | 3.2 | 0.00 | 0.00 | 0.00 | 31 | 1017.9 |
| 20260501214815 | 11 | 315 | 1.6 | 4.8 | 0.00 | 0.00 | 0.00 | 27 | 1017.8 |
| 20260501213835 | 12 | 293 | 4.8 | 8.0 | 0.00 | 0.00 | 0.00 | 28 | 1017.9 |